QLK1540 YSSY-YMML

Flight info

Callsign QLK1540
Flight time 1h 13m
Altitude 35000
Route KEVIN DCT WOL H65 LEECE Q29 BOOIN
Aircraft A320/M-SDE3FGHIRWY/LB1

Departure

Time 2026-04-20 06:10
Airport Sydney Kingsford Smith International Airport (YSSY)

Arrival

Time 2026-04-20 07:24
Airport Melbourne Airport (YMML)
Time Latitude Longitude Altitude Speed Heading
2026-04-20 05:32 -33.93173 151.17970 31 ft 0 kts 193°
2026-04-20 05:52 -33.93157 151.17974 31 ft 2 kts 193°
2026-04-20 05:52 -33.93141 151.17978 31 ft 2 kts 193°
2026-04-20 05:53 -33.93124 151.17983 31 ft 2 kts 193°
2026-04-20 05:53 -33.93108 151.17987 31 ft 2 kts 223°
2026-04-20 05:53 -33.93100 151.18002 31 ft 0 kts 281°
2026-04-20 05:57 -33.93098 151.17986 31 ft 6 kts 282°
2026-04-20 05:57 -33.93082 151.17923 31 ft 10 kts 288°
2026-04-20 05:57 -33.93065 151.17812 30 ft 16 kts 280°
2026-04-20 05:57 -33.93024 151.17687 30 ft 14 kts 296°
2026-04-20 05:58 -33.93005 151.17577 30 ft 14 kts 264°
2026-04-20 05:58 -33.93084 151.17521 30 ft 14 kts 196°
2026-04-20 05:58 -33.93186 151.17542 30 ft 16 kts 168°
2026-04-20 05:58 -33.93306 151.17572 30 ft 20 kts 168°
2026-04-20 05:59 -33.93452 151.17593 29 ft 22 kts 188°
2026-04-20 05:59 -33.93591 151.17611 28 ft 19 kts 167°
2026-04-20 05:59 -33.93713 151.17678 25 ft 22 kts 158°
2026-04-20 05:59 -33.93853 151.17741 21 ft 19 kts 134°
2026-04-20 06:00 -33.93968 151.17798 23 ft 18 kts 168°
2026-04-20 06:00 -33.94091 151.17828 23 ft 19 kts 167°
2026-04-20 06:00 -33.94226 151.17864 24 ft 22 kts 168°
2026-04-20 06:00 -33.94383 151.17905 24 ft 23 kts 167°
2026-04-20 06:01 -33.94499 151.17885 24 ft 14 kts 195°
2026-04-20 06:01 -33.94573 151.17896 24 ft 9 kts 167°
2026-04-20 06:01 -33.94626 151.17910 24 ft 10 kts 167°
2026-04-20 06:01 -33.94706 151.17930 22 ft 13 kts 167°
2026-04-20 06:02 -33.94817 151.17959 21 ft 19 kts 168°
2026-04-20 06:02 -33.94956 151.17995 23 ft 20 kts 168°
2026-04-20 06:02 -33.95086 151.18032 26 ft 18 kts 154°
2026-04-20 06:02 -33.95090 151.18174 27 ft 20 kts 77°
2026-04-20 06:03 -33.95061 151.18341 29 ft 19 kts 77°
2026-04-20 06:03 -33.95036 151.18479 27 ft 16 kts 77°
2026-04-20 06:03 -33.95011 151.18613 26 ft 13 kts 77°
2026-04-20 06:03 -33.95004 151.18654 25 ft 0 kts 77°
2026-04-20 06:04 -33.95000 151.18682 25 ft 7 kts 79°
2026-04-20 06:04 -33.94994 151.18719 24 ft 0 kts 78°
2026-04-20 06:09 -33.94993 151.18722 24 ft 2 kts 78°
2026-04-20 06:09 -33.94986 151.18784 24 ft 11 kts 94°
2026-04-20 06:09 -33.95039 151.18852 23 ft 13 kts 165°
2026-04-20 06:10 -33.95135 151.18878 23 ft 21 kts 168°
2026-04-20 06:10 -33.95512 151.18975 26 ft 86 kts 168°
2026-04-20 06:10 -33.96265 151.19169 35 ft 133 kts 168°
2026-04-20 06:10 -33.97168 151.19412 624 ft 133 kts 166°
2026-04-20 06:11 -33.97959 151.20057 1131 ft 146 kts 133°
2026-04-20 06:11 -33.98572 151.21038 1718 ft 147 kts 132°
2026-04-20 06:11 -33.99243 151.22082 1995 ft 169 kts 134°
2026-04-20 06:11 -34.00008 151.23271 2306 ft 188 kts 133°
2026-04-20 06:12 -34.00855 151.24559 2674 ft 202 kts 137°
2026-04-20 06:12 -34.02007 151.25644 3036 ft 222 kts 148°
2026-04-20 06:12 -34.03300 151.26827 3570 ft 240 kts 143°
2026-04-20 06:12 -34.04609 151.28123 4414 ft 246 kts 143°
2026-04-20 06:13 -34.05938 151.29457 5273 ft 251 kts 143°
2026-04-20 06:13 -34.07287 151.30810 6191 ft 254 kts 143°
2026-04-20 06:13 -34.08691 151.32121 7024 ft 256 kts 152°
2026-04-20 06:13 -34.10330 151.32987 7805 ft 259 kts 158°
2026-04-20 06:14 -34.11422 151.33596 8352 ft 262 kts 159°
2026-04-20 06:14 -34.13184 151.34061 9158 ft 262 kts 181°
2026-04-20 06:14 -34.14957 151.33559 9955 ft 267 kts 205°
2026-04-20 06:14 -34.16436 151.32143 10542 ft 282 kts 224°
2026-04-20 06:15 -34.17817 151.30331 10754 ft 305 kts 225°
2026-04-20 06:15 -34.19743 151.27734 11417 ft 318 kts 225°
2026-04-20 06:15 -34.20739 151.26378 11881 ft 320 kts 225°
2026-04-20 06:15 -34.22228 151.24358 12577 ft 324 kts 225°
2026-04-20 06:16 -34.23715 151.22345 13259 ft 327 kts 225°
2026-04-20 06:16 -34.25241 151.20290 13959 ft 330 kts 225°
2026-04-20 06:16 -34.26787 151.18214 14578 ft 333 kts 225°
2026-04-20 06:16 -34.28347 151.16122 15191 ft 336 kts 225°
2026-04-20 06:17 -34.29919 151.14014 15801 ft 339 kts 225°
2026-04-20 06:17 -34.31505 151.11884 16409 ft 342 kts 225°
2026-04-20 06:17 -34.33101 151.09741 17016 ft 345 kts 225°
2026-04-20 06:17 -34.34714 151.07574 17624 ft 347 kts 225°
2026-04-20 06:18 -34.36338 151.05390 18236 ft 350 kts 225°
2026-04-20 06:18 -34.37970 151.03188 18796 ft 353 kts 225°
2026-04-20 06:18 -34.39618 151.00963 19339 ft 356 kts 225°
2026-04-20 06:18 -34.41278 150.98724 19907 ft 358 kts 225°
2026-04-20 06:19 -34.42950 150.96472 20489 ft 360 kts 225°
2026-04-20 06:19 -34.44632 150.94207 21060 ft 363 kts 225°
2026-04-20 06:19 -34.46324 150.91930 21619 ft 365 kts 225°
2026-04-20 06:19 -34.48024 150.89636 22166 ft 367 kts 225°
2026-04-20 06:20 -34.49730 150.87324 22718 ft 369 kts 225°
2026-04-20 06:20 -34.51445 150.84992 23261 ft 371 kts 225°
2026-04-20 06:20 -34.53156 150.82630 23801 ft 374 kts 225°
2026-04-20 06:20 -34.54881 150.80256 24252 ft 376 kts 224°
2026-04-20 06:21 -34.56543 150.77788 24698 ft 380 kts 229°
2026-04-20 06:21 -34.58121 150.75206 25132 ft 382 kts 229°
2026-04-20 06:21 -34.59705 150.72607 25536 ft 384 kts 229°
2026-04-20 06:21 -34.61273 150.70023 25945 ft 386 kts 229°
2026-04-20 06:22 -34.62867 150.67390 26340 ft 388 kts 229°
2026-04-20 06:22 -34.64468 150.64741 26752 ft 390 kts 229°
2026-04-20 06:22 -34.66071 150.62074 27145 ft 392 kts 229°
2026-04-20 06:22 -34.67680 150.59389 27522 ft 394 kts 229°
2026-04-20 06:23 -34.69300 150.56686 27909 ft 396 kts 229°
2026-04-20 06:23 -34.70927 150.53977 28291 ft 398 kts 229°
2026-04-20 06:23 -34.72562 150.51256 28676 ft 399 kts 229°
2026-04-20 06:23 -34.74204 150.48520 29063 ft 401 kts 229°
2026-04-20 06:24 -34.75857 150.45768 29401 ft 404 kts 229°
2026-04-20 06:24 -34.77519 150.42998 29724 ft 407 kts 229°
2026-04-20 06:24 -34.79187 150.40209 30108 ft 409 kts 229°
2026-04-20 06:24 -34.80863 150.37399 30464 ft 411 kts 229°
2026-04-20 06:25 -34.82523 150.34617 30755 ft 412 kts 229°
2026-04-20 06:25 -34.84215 150.31780 31068 ft 414 kts 229°
2026-04-20 06:25 -34.85909 150.28939 31422 ft 414 kts 229°
2026-04-20 06:25 -34.87597 150.26103 31800 ft 414 kts 228°
2026-04-20 06:26 -34.89280 150.23270 32242 ft 412 kts 228°
2026-04-20 06:26 -34.90957 150.20447 32681 ft 410 kts 228°
2026-04-20 06:26 -34.92628 150.17635 33117 ft 409 kts 228°
2026-04-20 06:26 -34.94291 150.14832 33522 ft 408 kts 228°
2026-04-20 06:27 -34.95956 150.12027 33930 ft 407 kts 228°
2026-04-20 06:27 -34.97618 150.09230 34250 ft 407 kts 228°
2026-04-20 06:27 -35.00912 150.03672 34306 ft 402 kts 227°
2026-04-20 06:28 -35.04171 149.98147 34310 ft 401 kts 228°
2026-04-20 06:28 -35.07433 149.92627 34309 ft 400 kts 228°
2026-04-20 06:29 -35.10688 149.87107 34298 ft 401 kts 228°
2026-04-20 06:29 -35.13949 149.81563 34311 ft 402 kts 228°
2026-04-20 06:30 -35.17207 149.76014 34316 ft 402 kts 228°
2026-04-20 06:30 -35.20460 149.70468 34314 ft 401 kts 228°
2026-04-20 06:31 -35.23692 149.64957 34314 ft 401 kts 228°
2026-04-20 06:31 -35.26960 149.59365 34293 ft 401 kts 228°
2026-04-20 06:32 -35.30179 149.53842 34299 ft 401 kts 228°
2026-04-20 06:32 -35.33428 149.48287 34295 ft 401 kts 228°
2026-04-20 06:33 -35.36668 149.42732 34301 ft 401 kts 228°
2026-04-20 06:33 -35.39905 149.37158 34300 ft 401 kts 229°
2026-04-20 06:34 -35.43132 149.31588 34297 ft 401 kts 228°
2026-04-20 06:35 -35.47973 149.23218 34303 ft 401 kts 228°
2026-04-20 06:35 -35.51198 149.17639 34298 ft 401 kts 228°
2026-04-20 06:36 -35.54419 149.12046 34301 ft 401 kts 229°
2026-04-20 06:36 -35.57637 149.06449 34308 ft 401 kts 229°
2026-04-20 06:37 -35.60856 149.00852 34282 ft 401 kts 229°
2026-04-20 06:37 -35.64077 148.95258 34286 ft 401 kts 228°
2026-04-20 06:38 -35.67278 148.89689 34299 ft 401 kts 229°
2026-04-20 06:38 -35.70487 148.84073 34301 ft 401 kts 229°
2026-04-20 06:39 -35.73693 148.78452 34305 ft 401 kts 229°
2026-04-20 06:39 -35.76900 148.72840 34294 ft 401 kts 229°
2026-04-20 06:40 -35.80099 148.67219 34299 ft 401 kts 229°
2026-04-20 06:40 -35.83293 148.61594 34308 ft 401 kts 229°
2026-04-20 06:41 -35.86494 148.55960 34309 ft 401 kts 229°
2026-04-20 06:41 -35.89686 148.50324 34312 ft 401 kts 229°
2026-04-20 06:42 -35.92871 148.44674 34301 ft 401 kts 229°
2026-04-20 06:42 -35.96052 148.39019 34307 ft 401 kts 229°
2026-04-20 06:43 -35.99232 148.33357 34295 ft 401 kts 229°
2026-04-20 06:43 -36.02405 148.27693 34296 ft 401 kts 229°
2026-04-20 06:44 -36.05560 148.22051 34302 ft 401 kts 229°
2026-04-20 06:44 -36.08724 148.16390 34281 ft 401 kts 230°
2026-04-20 06:45 -36.11891 148.10718 34278 ft 401 kts 230°
2026-04-20 06:45 -36.15063 148.05046 34275 ft 401 kts 230°
2026-04-20 06:46 -36.18235 147.99376 34274 ft 401 kts 230°
2026-04-20 06:46 -36.21406 147.93690 34284 ft 401 kts 230°
2026-04-20 06:47 -36.24572 147.88007 34258 ft 401 kts 230°
2026-04-20 06:47 -36.27741 147.82312 34271 ft 401 kts 230°
2026-04-20 06:48 -36.30904 147.76610 34274 ft 401 kts 230°
2026-04-20 06:48 -36.34059 147.70906 34281 ft 401 kts 230°
2026-04-20 06:49 -36.37215 147.65191 34263 ft 401 kts 230°
2026-04-20 06:49 -36.40344 147.59522 34268 ft 401 kts 230°
2026-04-20 06:50 -36.43485 147.53797 34279 ft 401 kts 231°
2026-04-20 06:50 -36.46618 147.48079 34275 ft 400 kts 230°
2026-04-20 06:51 -36.49754 147.42362 34278 ft 400 kts 230°
2026-04-20 06:51 -36.52893 147.36638 34255 ft 401 kts 231°
2026-04-20 06:52 -36.56027 147.30904 34274 ft 401 kts 231°
2026-04-20 06:52 -36.59157 147.25161 34278 ft 400 kts 231°
2026-04-20 06:53 -36.62277 147.19423 34282 ft 400 kts 231°
2026-04-20 06:53 -36.65403 147.13675 34289 ft 400 kts 231°
2026-04-20 06:54 -36.68520 147.07926 34272 ft 400 kts 231°
2026-04-20 06:54 -36.71631 147.02177 34275 ft 400 kts 231°
2026-04-20 06:55 -36.74743 146.96434 34279 ft 400 kts 231°
2026-04-20 06:55 -36.76293 146.93565 34089 ft 395 kts 231°
2026-04-20 06:55 -36.77794 146.90778 33822 ft 389 kts 231°
2026-04-20 06:55 -36.79293 146.87991 33554 ft 385 kts 231°
2026-04-20 06:56 -36.80795 146.85204 33299 ft 393 kts 231°
2026-04-20 06:56 -36.82360 146.82312 33016 ft 408 kts 232°
2026-04-20 06:56 -36.83964 146.79342 32756 ft 413 kts 232°
2026-04-20 06:56 -36.85566 146.76364 32504 ft 413 kts 232°
2026-04-20 06:57 -36.87164 146.73384 32247 ft 412 kts 232°
2026-04-20 06:57 -36.88764 146.70389 31999 ft 416 kts 232°
2026-04-20 06:57 -36.90372 146.67377 31750 ft 417 kts 232°
2026-04-20 06:57 -36.91980 146.64366 31500 ft 416 kts 232°
2026-04-20 06:58 -36.93041 146.62380 31339 ft 416 kts 232°
2026-04-20 06:58 -36.95179 146.58369 31011 ft 413 kts 232°
2026-04-20 06:58 -36.96773 146.55385 30772 ft 412 kts 232°
2026-04-20 06:58 -36.98361 146.52410 30531 ft 411 kts 232°
2026-04-20 06:59 -36.99410 146.50446 30379 ft 410 kts 232°
2026-04-20 06:59 -37.00990 146.47487 29981 ft 408 kts 232°
2026-04-20 06:59 -37.02564 146.44543 29567 ft 406 kts 232°
2026-04-20 06:59 -37.04637 146.40659 29016 ft 403 kts 232°
2026-04-20 07:00 -37.05684 146.38689 28753 ft 402 kts 232°
2026-04-20 07:00 -37.07221 146.35787 28355 ft 399 kts 233°
2026-04-20 07:00 -37.08754 146.32890 27927 ft 397 kts 233°
2026-04-20 07:00 -37.10273 146.30018 27472 ft 395 kts 232°
2026-04-20 07:01 -37.11788 146.27156 27048 ft 393 kts 232°
2026-04-20 07:01 -37.13276 146.24338 26611 ft 391 kts 233°
2026-04-20 07:01 -37.14776 146.21499 26156 ft 390 kts 232°
2026-04-20 07:01 -37.16267 146.18675 25697 ft 387 kts 232°
2026-04-20 07:02 -37.17750 146.15864 25240 ft 385 kts 232°
2026-04-20 07:02 -37.19226 146.13061 24770 ft 384 kts 232°
2026-04-20 07:02 -37.20694 146.10272 24304 ft 382 kts 232°
2026-04-20 07:02 -37.22158 146.07490 23823 ft 382 kts 232°
2026-04-20 07:03 -37.23620 146.04713 23288 ft 380 kts 233°
2026-04-20 07:03 -37.25073 146.01954 22816 ft 379 kts 233°
2026-04-20 07:03 -37.26525 145.99196 22337 ft 378 kts 233°
2026-04-20 07:03 -37.27968 145.96448 21864 ft 376 kts 233°
2026-04-20 07:04 -37.29404 145.93708 21367 ft 374 kts 234°
2026-04-20 07:04 -37.30832 145.90981 20854 ft 374 kts 234°
2026-04-20 07:04 -37.32261 145.88255 20337 ft 372 kts 234°
2026-04-20 07:04 -37.33677 145.85557 19828 ft 366 kts 234°
2026-04-20 07:05 -37.35070 145.82902 19336 ft 362 kts 234°
2026-04-20 07:05 -37.36449 145.80276 18854 ft 358 kts 235°
2026-04-20 07:05 -37.37812 145.77681 18328 ft 354 kts 235°
2026-04-20 07:05 -37.39161 145.75110 17772 ft 351 kts 235°
2026-04-20 07:06 -37.40501 145.72550 17233 ft 349 kts 235°
2026-04-20 07:06 -37.41831 145.70003 16721 ft 347 kts 235°
2026-04-20 07:06 -37.43151 145.67473 16266 ft 345 kts 236°
2026-04-20 07:06 -37.44347 145.64873 15813 ft 344 kts 246°
2026-04-20 07:07 -37.44967 145.62014 15386 ft 344 kts 261°
2026-04-20 07:07 -37.45022 145.59001 14961 ft 345 kts 269°
2026-04-20 07:07 -37.44984 145.55948 14517 ft 343 kts 268°
2026-04-20 07:07 -37.44950 145.52989 14092 ft 342 kts 269°
2026-04-20 07:08 -37.44918 145.50015 13631 ft 338 kts 269°
2026-04-20 07:08 -37.44887 145.47068 13175 ft 335 kts 269°
2026-04-20 07:08 -37.44854 145.44159 12741 ft 331 kts 269°
2026-04-20 07:08 -37.44820 145.41276 12304 ft 328 kts 269°
2026-04-20 07:09 -37.44784 145.38381 11883 ft 325 kts 269°
2026-04-20 07:09 -37.44746 145.35588 11462 ft 319 kts 270°
2026-04-20 07:09 -37.44712 145.32852 11050 ft 306 kts 270°
2026-04-20 07:09 -37.44680 145.30231 10645 ft 294 kts 270°
2026-04-20 07:10 -37.44649 145.27685 10243 ft 288 kts 270°
2026-04-20 07:10 -37.44616 145.25176 9806 ft 284 kts 270°
2026-04-20 07:10 -37.44580 145.22704 9386 ft 282 kts 270°
2026-04-20 07:10 -37.44546 145.20243 9058 ft 279 kts 270°
2026-04-20 07:11 -37.44514 145.17811 8754 ft 277 kts 270°
2026-04-20 07:11 -37.44482 145.15389 8453 ft 276 kts 270°
2026-04-20 07:11 -37.44450 145.12975 8154 ft 275 kts 270°
2026-04-20 07:11 -37.44415 145.10574 7894 ft 274 kts 271°
2026-04-20 07:12 -37.44380 145.08180 7647 ft 274 kts 271°
2026-04-20 07:12 -37.44345 145.05780 7408 ft 273 kts 271°
2026-04-20 07:12 -37.44308 145.03399 7165 ft 270 kts 271°
2026-04-20 07:12 -37.44271 145.01039 6965 ft 271 kts 271°
2026-04-20 07:13 -37.44236 144.98687 6775 ft 266 kts 271°
2026-04-20 07:13 -37.44201 144.96389 6577 ft 260 kts 271°
2026-04-20 07:13 -37.44217 144.94142 6365 ft 254 kts 264°
2026-04-20 07:13 -37.44505 144.91971 6168 ft 249 kts 261°
2026-04-20 07:14 -37.44809 144.89849 5989 ft 244 kts 260°
2026-04-20 07:14 -37.45107 144.87749 5812 ft 244 kts 261°
2026-04-20 07:14 -37.45404 144.85655 5636 ft 241 kts 261°
2026-04-20 07:14 -37.45696 144.83577 5463 ft 241 kts 262°
2026-04-20 07:15 -37.45988 144.81505 5287 ft 239 kts 261°
2026-04-20 07:15 -37.46480 144.79503 5126 ft 242 kts 246°
2026-04-20 07:15 -37.47362 144.77722 4973 ft 244 kts 236°
2026-04-20 07:15 -37.48323 144.75969 4824 ft 243 kts 238°
2026-04-20 07:16 -37.49281 144.74215 4662 ft 244 kts 236°
2026-04-20 07:16 -37.50243 144.72443 4510 ft 245 kts 236°
2026-04-20 07:16 -37.51204 144.70672 4358 ft 244 kts 236°
2026-04-20 07:16 -37.52163 144.68904 4215 ft 244 kts 236°
2026-04-20 07:17 -37.53118 144.67139 4067 ft 244 kts 236°
2026-04-20 07:17 -37.54076 144.65372 3917 ft 244 kts 235°
2026-04-20 07:17 -37.55119 144.63694 3792 ft 243 kts 225°
2026-04-20 07:17 -37.56277 144.62157 3663 ft 237 kts 225°
2026-04-20 07:18 -37.57442 144.60756 3540 ft 226 kts 213°
2026-04-20 07:18 -37.58805 144.59880 3414 ft 216 kts 195°
2026-04-20 07:18 -37.60244 144.59571 3279 ft 204 kts 182°
2026-04-20 07:18 -37.61618 144.59443 3193 ft 193 kts 182°
2026-04-20 07:19 -37.62926 144.59333 3101 ft 186 kts 176°
2026-04-20 07:19 -37.64109 144.59827 3018 ft 180 kts 141°
2026-04-20 07:19 -37.64794 144.61108 3009 ft 180 kts 105°
2026-04-20 07:19 -37.64848 144.62697 3010 ft 183 kts 92°
2026-04-20 07:20 -37.64912 144.64296 3011 ft 180 kts 97°
2026-04-20 07:20 -37.65022 144.65883 2937 ft 183 kts 96°
2026-04-20 07:20 -37.65136 144.67471 2694 ft 181 kts 97°
2026-04-20 07:20 -37.65245 144.69038 2438 ft 174 kts 97°
2026-04-20 07:21 -37.65342 144.70489 2218 ft 159 kts 97°
2026-04-20 07:21 -37.65428 144.71821 2010 ft 147 kts 98°
2026-04-20 07:21 -37.65508 144.73076 1827 ft 143 kts 96°
2026-04-20 07:21 -37.65586 144.74332 1643 ft 139 kts 99°
2026-04-20 07:22 -37.65663 144.75539 1483 ft 143 kts 100°
2026-04-20 07:22 -37.65744 144.76803 1296 ft 145 kts 99°
2026-04-20 07:22 -37.65821 144.78061 1079 ft 140 kts 100°
2026-04-20 07:22 -37.65894 144.79293 909 ft 141 kts 99°
2026-04-20 07:23 -37.65968 144.80538 725 ft 142 kts 102°
2026-04-20 07:23 -37.66045 144.81790 556 ft 142 kts 99°
2026-04-20 07:23 -37.66122 144.83007 411 ft 129 kts 95°
2026-04-20 07:23 -37.66175 144.83910 386 ft 78 kts 94°
2026-04-20 07:24 -37.66203 144.84381 358 ft 29 kts 95°
2026-04-20 07:24 -37.66211 144.84542 351 ft 22 kts 94°
2026-04-20 07:24 -37.66226 144.84771 332 ft 21 kts 95°
2026-04-20 07:24 -37.66307 144.84871 330 ft 14 kts 141°
2026-04-20 07:25 -37.66372 144.84936 331 ft 11 kts 141°
2026-04-20 07:25 -37.66428 144.84992 330 ft 7 kts 142°
2026-04-20 07:25 -37.66470 144.85032 332 ft 8 kts 148°
2026-04-20 07:25 -37.66495 144.85043 332 ft 0 kts 165°
2026-04-20 07:26 -37.66509 144.85047 332 ft 8 kts 168°
2026-04-20 07:27 -37.66589 144.85061 335 ft 14 kts 174°
2026-04-20 07:27 -37.66687 144.85079 336 ft 14 kts 171°
2026-04-20 07:27 -37.66754 144.85088 337 ft 8 kts 179°
2026-04-20 07:27 -37.66780 144.85108 338 ft 4 kts 103°
2026-04-20 07:28 -37.66777 144.85154 340 ft 2 kts 82°
2026-04-20 07:28 -37.66777 144.85158 340 ft 0 kts 82°
2026-04-20 07:28 -37.66776 144.85165 338 ft 0 kts 82°